Location: Unspecified
(47.2333°N, 39.7000°E)
Time: 22:30:17
(UTC+00:00)

ISS - Pass Details

Date: 12 July 2022
Orbit: 412 x 420 km, 51.6° (Epoch: 17 August)

Event Time Altitude Azimuth Distance (km) Brightness Sun altitude
Rises 18:52:32 0° 222° (SW) 2,338 -0.1 -12.6°
Reaches altitude 10° 18:54:41 10° 214° (SSW) 1,481 -1.2 -12.9°
Maximum altitude 18:57:48 37° 145° (SE) 657 -3.3 -13.2°
Drops below altitude 10° 19:00:56 10° 76° (ENE) 1,494 -1.2 -13.5°
Sets 19:03:07 0° 68° (ENE) 2,362 -0.1 -13.7°
